Regional Weather Roundup
Issued by NWS

Home | Current Version | Previous Version | Graphics & Text | Print | Product List | Glossary On
Versions: 1 2 3 4 5 6 7 8 9 10 11 12 13 14 15 16 17 18 19 20 21 22 23 24 25 26 27 28 29 30 31 32 33 34 35 36 37 38 39 40 41 42 43 44 45 46 47 48 49 50
000
ASUS44 KMEG 210710
RWRTN
TENNESSEE HOURLY STATE WEATHER ROUNDUP
NATIONAL WEATHER SERVICE MEMPHIS TN
200 AM CDT TUE OCT 21 2014

TNZ002-004-019-021-049-052-054-088>092-210800-
WEST TENNESSEE

CITY           SKY/WX    TMP DP  RH WIND       PRES   REMARKS
MEMPHIS INTL   PTCLDY    56  52  86 CALM      30.03S
NWS MEMPHIS      N/A     52 N/A N/A MISG        N/A
JACKSON        PTCLDY    55  51  86 SW3       30.02S
DYERSBURG      CLEAR     54  43  66 CALM      30.04R
UNION CITY     CLEAR     48  48 100 NE3       30.01S
PARIS          CLEAR     46  46 100 CALM      30.02S
HUNTINGDON     CLEAR     50  48  92 CALM      30.02S
LEXINGTON      CLEAR     50  48  93 CALM      30.01S
SAVANNAH       CLEAR     46  46 100 CALM      30.03S
$$

TNZ008-025-027-028-033-062-065-066-210800-
NORTH MIDDLE TENNESSEE

CITY           SKY/WX    TMP DP  RH WIND       PRES   REMARKS
NASHVILLE      CLEAR     53  49  86 CALM      30.01S
CLARKSVILLE    CLEAR     54  52  93 CALM      30.01S
SMYRNA         CLEAR     47  47 100 CALM      30.02S
COOKEVILLE     PTCLDY    48  48 100 CALM      30.01S
CROSSVILLE     PTCLDY    52  46  80 W7        30.02F
$$

TNZ061-075-076-078-094-096-097-210800-
SOUTH MIDDLE TENNESSEE

CITY           SKY/WX    TMP DP  RH WIND       PRES   REMARKS
FAYETTEVILLE   CLEAR     46  45  93 MISG      30.02F
TULLAHOMA      CLEAR     45  45 100 CALM      30.03S
WINCHESTER     CLEAR     46  45  93 CALM      30.03F
MCMINNVILLE    CLEAR     48  48 100 CALM      30.02S
COLUMBIA       CLOUDY   N/A N/A N/A CALM      30.00S
SHELBYVILLE    CLEAR     46  46 100 CALM      30.03S
$$

TNZ017-018-042-046-047-210800-
NORTHEAST TENNESSEE

CITY           SKY/WX    TMP DP  RH WIND       PRES   REMARKS
TRI CITIES     CLEAR     47  46  97 CALM      29.99F
ELIZABETHTON   CLOUDY    52  48  87 CALM      30.00S
$$

TNZ012-013-036-069-073-074-210800-
CENTRAL EAST TENNESSEE

CITY           SKY/WX    TMP DP  RH WIND       PRES   REMARKS
KNOXVILLE      MOCLDY    53  49  86 SW7       30.00S
OAK RIDGE      PTCLDY    53  49  86 SW3       30.01S
GATLINBURG     SUNNY     50  46  87 CALM      30.00S
MORRISTOWN     MOSUNNY   54  50  87 S3        30.00S
$$

TNZ083-085-099-210800-
SOUTHEAST TENNESSEE

CITY           SKY/WX    TMP DP  RH WIND       PRES   REMARKS
CHATTANOOGA    CLEAR     52  49  89 CALM      30.02S
$$

SKY/WX REPORTED AS FAIR MEANS FEW OR NO CLOUDS BELOW
12 THOUSAND FEET.



USA.gov is the U.S. government's official web portal to all federal, state and local government web resources and services.